Terminal Aerodrome Forecast
Issued by NWS

Home | Current Version | Previous Version | Text Only | Print | Product List | Glossary On
Versions: 1 2 3 4 5 6 7 8 9 10 11 12 13 14 15 16 17 18 19 20 21 22 23 24 25 26 27 28 29 30 31 32 33 34 35 36 37 38 39 40 41 42 43 44 45 46 47 48 49 50
000
FTUS42 KMFL 270402 AAB
TAFMIA
TAF AMD
KMIA 270402Z 2704/2724 00000KT P6SM FEW005 SCT015
      TEMPO 2709/2713 3SM BR SCT005 BKN010
     FM271400 11008KT P6SM SCT035 BKN045
     FM272300 10005KT P6SM FEW030=

USA.gov is the U.S. government's official web portal to all federal, state and local government web resources and services.